Regional Weather Roundup
Issued by NWS

Home | Current Version | Previous Version | Graphics & Text | Print | Product List | Glossary On
Versions: 1 2 3 4 5 6 7 8 9 10 11 12 13 14 15 16 17 18 19 20 21 22 23 24 25 26 27 28 29 30 31 32 33 34 35 36 37 38 39 40 41 42 43 44 45 46 47 48 49 50
000
ASUS45 KPSR 280000
RWRAZ

PRELIMINARY ARIZONA REGIONAL HOURLY WEATHER ROUNDUP
NATIONAL WEATHER SERVICE PHOENIX AZ
500 PM MST TUE JAN 27 2015

NOTE: FAIR INDICATES FEW OR NO CLOUDS BELOW 12,000 FEET WITH NO
SIGNIFICANT WEATHER AND/OR OBSTRUCTIONS TO VISIBILITY.

AZZ001>003-036-280100-
NORTHWEST ARIZONA

CITY           SKY/WX    TMP DP  RH WIND       PRES   REMARKS
KINGMAN        PTCLDY    60  46  59 SW13      30.21S
6HR MIN TEMP:  56; 6HR MAX TEMP:  62;

$$

AZZ004>008-015-016-018-280100-
NORTH CENTRAL ARIZONA

CITY           SKY/WX    TMP DP  RH WIND       PRES   REMARKS
GRAND CANYON   PTCLDY    49  36  61 SW12      30.28S
6HR MIN TEMP:  43; 6HR MAX TEMP:  50;

PRESCOTT       MOCLDY    55  38  52 S7        30.25S
6HR MIN TEMP:  52; 6HR MAX TEMP:  60;

FLAGSTAFF      NOT AVBL
PAYSON         PTCLDY    55  43  62 SW6       30.28S
$$

AZZ009>014-017-280100-
NORTHEAST ARIZONA

CITY           SKY/WX    TMP DP  RH WIND       PRES   REMARKS
WINSLOW        NOT AVBL
SAINT JOHNS    PTCLDY    58  38  47 W9        30.25F
6HR MIN TEMP:  53; 6HR MAX TEMP:  61;

WINDOW ROCK    CLOUDY    54  32  43 W7        30.28F
6HR MIN TEMP:  53; 6HR MAX TEMP:  58;

SHOW LOW       CLEAR     52  37  58 SW8       30.30F
$$

AZZ023-280100-
GREATER PHOENIX AREA

CITY           SKY/WX    TMP DP  RH WIND       PRES   REMARKS
PHOENIX        CLEAR     73  48  41 CALM      30.12F
6HR MIN TEMP:  60; 6HR MAX TEMP:  74;

GLENDALE       MOCLDY    73  48  40 CALM      30.15F
LUKE AFB       NOT AVBL
6HR MIN TEMP:  64; 6HR MAX TEMP:  73;

DEER VALLEY    CLEAR     71  48  43 CALM      30.14S
6HR MIN TEMP:  62; 6HR MAX TEMP:  73;

SCOTTSDALE     MOCLDY    72  48  42 CALM      30.15F
6HR MIN TEMP:  59; 6HR MAX TEMP:  73;

MESA-FALCON    MOCLDY    70  48  46 CALM      30.14S
MESA-GATEWAY   MOCLDY    68  54  60 NW3       30.16F
CHANDLER       MOCLDY    72  52  49 CALM      30.14F
$$

AZZ027-028-280100-
SOUTHWEST MARICOPA COUNTY AND PINAL COUNTY

CITY           SKY/WX    TMP DP  RH WIND       PRES   REMARKS
CASA GRANDE    FAIR      70  52  52 CALM      30.15S
6HR MIN TEMP:  59; 6HR MAX TEMP:  70;

$$

AZZ503-504-507>509-280100-
SOUTHEAST ARIZONA

CITY           SKY/WX    TMP DP  RH WIND       PRES   REMARKS
TUCSON         CLEAR     71  48  43 N12       30.16S
6HR MIN TEMP:  65; 6HR MAX TEMP:  75;

DAVIS-MONTHAN  PTCLDY    69  50  49 NW13      30.14S
6HR MIN TEMP:  67; 6HR MAX TEMP:  73;

RYAN FIELD       N/A     70  50  49 N10       30.16F
NOGALES        PTCLDY    70  44  39 W6        30.18F
6HR MIN TEMP:  63; 6HR MAX TEMP:  73;

SIERRA VISTA   MOCLDY    66  39  37 N3        30.21S
SAFFORD        CLEAR     70  35  27 CALM      30.16F
6HR MIN TEMP:  63; 6HR MAX TEMP:  72;

$$

AZZ020-021-025-026-031-280100-
SOUTHWEST ARIZONA

CITY           SKY/WX    TMP DP  RH WIND       PRES   REMARKS
YUMA           MOSUNNY   71  56  58 N5        30.14F
6HR MIN TEMP:  62; 6HR MAX TEMP:  71;

$$

CAZ031-033-041-043-047-048-061-280100-
SOUTHERN CALIFORNIA

CITY           SKY/WX    TMP DP  RH WIND       PRES   REMARKS
DOWNTOWN L.A.  SUNNY     69  50  50 VRB5      30.15S
6HR MIN TEMP:  65; 6HR MAX TEMP:  74;

L.A. AIRPORT   MOSUNNY   64  54  69 W13       30.16S
6HR MIN TEMP:  63; 6HR MAX TEMP:  69;

SAN DIEGO      MOSUNNY   66  52  60 NW9       30.16S
6HR MIN TEMP:  66; 6HR MAX TEMP:  78;

BURBANK        SUNNY     68  46  45 S9        30.15R
6HR MIN TEMP:  62; 6HR MAX TEMP:  70;

ONTARIO        MOSUNNY   70  45  40 W7        30.15R
6HR MIN TEMP:  64; 6HR MAX TEMP:  71;

RIVERSIDE      SUNNY     69  50  50 W7        30.15R
6HR MIN TEMP:  63; 6HR MAX TEMP:  71;

PALM SPRINGS   SUNNY     68  49  50 E3        30.18S
6HR MIN TEMP:  61; 6HR MAX TEMP:  71;

EL CENTRO NAS  PTSUNNY   67  53  61 CALM      30.16F
6HR MIN TEMP:  61; 6HR MAX TEMP:  68;

IMPERIAL       PTSUNNY   66  54  65 VRB3      30.15F
6HR MIN TEMP:  61; 6HR MAX TEMP:  66;

BLYTHE         SUNNY     68  57  68 W10       30.16S
6HR MIN TEMP:  60; 6HR MAX TEMP:  69;

$$

NVZ020-UTZ003-280100-
SOUTHERN NEVADA-UTAH

CITY           SKY/WX    TMP DP  RH WIND       PRES   REMARKS
LAS VEGAS      NOT AVBL
SALT LAKE CITY PTCLDY    50  37  61 CALM      30.13F
6HR MIN TEMP:  42; 6HR MAX TEMP:  58;

$$

NMZ009-TXZ055-280100-
NEW MEXICO-WEST TEXAS

CITY           SKY/WX    TMP DP  RH WIND       PRES   REMARKS
ALBUQUERQUE    PTCLDY    60  28  29 CALM      30.24F
6HR MIN TEMP:  45; 6HR MAX TEMP:  61;

EL PASO        PTCLDY    67  39  35 SW6       30.19F
6HR MIN TEMP:  58; 6HR MAX TEMP:  69;

$$


........................KEY........................
SKY/WX - SKY CONDITION/WEATHER
TMP    - TEMPERATURE IN FAHRENHEIT
DP     - DEW POINT IN FAHRENHEIT
RH     - RELATIVE HUMIDITY IN PERCENT
WIND   - DIRECTION AND SPEED IN MILES PER HOUR (MPH)
VRB    - VARIABLE WIND DIRECTION
PRES   - MEAN SEA LEVEL PRESSURE IN INCHES OF MERCURY
         F - FALLING PRESSURE   R - RISING PRESSURE
         S - STEADY PRESSURE
VSB    - VISIBILITY IN MILES
HX     - HEAT INDEX IN FAHRENHEIT
WCI    - WIND CHILL INDEX IN FAHRENHEIT
TC     - TEMPERATURE IN CELSIUS WHICH IS ALSO KNOWN AS
         TEMPERATURE IN CENTIGRADE
AFB    - AIR FORCE BASE
         LUKE AFB IS LUKE AIR FORCE BASE
         DAVIS-MONTHAN IS DAVIS-MONTHAN AIR FORCE BASE
NAS    - NAVAL AIR STATION
         EL CENTRO NAS IS EL CENTRO NAVAL AIR STATION
N/A    - NOT AVAILABLE



USA.gov is the U.S. government's official web portal to all federal, state and local government web resources and services.